{"data":{"norad_id":69784,"epoch":"2026-09-19T22:13:30.923904Z","epoch_age_seconds":76246,"freshness":"FRESH","line1":"1 69784U 26151X   26262.92605236 -.00002312  00000+0 -27435-3 0  9993","line2":"2 69784  51.8993 239.2297 0000837 116.2928 243.8120 14.79940964 11984","mean_motion":14.79940964,"eccentricity":8.37e-5,"inclination_deg":51.8993,"raan_deg":239.2297,"arg_perigee_deg":116.2928,"mean_anomaly_deg":243.812,"bstar":-0.00027435,"rev_number":1198,"period_min":97.301178562417,"perigee_km":628.92394881839,"apogee_km":630.09702900804,"semimajor_km":7007.6474889132,"source":"CELESTRAK","updated_at":"2026-09-20T09:00:25.094463Z"}}